FW6325 Weather Reports


time (UTC)temp
F
wind
direction
speed
knots
gust
knots
rain 1hr
in
rain 24hr
in
rain mn
in
humidity
%
barometer
mb
20260505070036 43 149 1.7 7.0 0.00 0.09 0.00 86 1008.0
20260505064541 43 144 2.6 6.1 0.00 0.13 0.00 86 1007.6
20260505063031 43 240 1.7 6.1 0.00 0.13 0.00 86 1007.3
20260505061527 44 229 0.9 7.0 0.00 0.13 0.00 84 1007.1
20260505060024 45 248 0.9 5.2 0.00 0.13 0.00 84 1006.8
20260505054540 46 82 0.9 7.8 0.00 0.14 0.00 84 1006.3
20260505053018 46 232 0.9 7.0 0.00 0.14 0.00 83 1006.0
20260505051515 47 53 0.9 6.1 0.00 0.14 0.00 82 1005.8
20260505041507 48 151 2.6 7.0 0.00 0.16 0.00 81 1004.9
20260505040004 48 31 1.7 8.7 0.00 0.17 0.00 81 1004.7
20260505034612 48 144 0.9 5.2 0.00 0.17 0.00 81 1004.6
20260505033056 48 151 3.5 7.0 0.00 0.17 0.00 82 1004.5
20260505031553 48 167 2.6 11.3 0.00 0.17 0.00 84 1004.3
20260505030059 48 186 0.9 5.2 0.00 0.17 0.00 83 1004.2
20260505024601 49 174 3.5 7.8 0.00 0.17 0.17 81 1004.0
20260505023048 49 176 3.5 12.2 0.00 0.17 0.17 79 1003.9
20260505021546 49 166 5.2 13.0 0.00 0.17 0.17 77 1003.6
20260505020059 49 163 2.6 11.3 0.00 0.17 0.17 76 1003.3
20260505014543 49 238 3.5 6.1 0.00 0.22 0.17 75 1003.2
20260505013043 49 238 1.7 9.6 0.00 0.22 0.17 74 1003.0
20260505011543 49 255 2.6 8.7 0.00 0.22 0.17 73 1003.2
20260505010050 49 165 1.7 12.2 0.00 0.22 0.17 72 1002.9
20260505004556 49 213 3.5 7.8 0.00 0.34 0.17 69 1002.5
20260505003037 49 241 2.6 7.8 0.00 0.34 0.17 68 1002.4
20260505001539 49 282 1.7 7.0 0.00 0.34 0.17 67 1002.3
20260505000037 47 232 3.5 9.6 0.00 0.34 0.17 71 1002.3
20260504234532 47 217 3.5 7.0 0.00 0.50 0.17 72 1001.8
20260504233030 48 216 2.6 8.7 0.00 0.50 0.17 69 1001.5
20260504231527 48 230 0.9 9.6 0.00 0.50 0.17 70 1001.3
20260504230027 49 244 0.9 4.3 0.00 0.50 0.17 68 1001.0
20260504224532 50 146 0.9 6.1 0.00 0.56 0.17 61 1000.9
20260504223024 51 160 4.3 10.4 0.00 0.56 0.17 60 1000.8
20260504221530 51 167 5.2 10.4 0.00 0.56 0.17 61 1000.5
20260504220022 51 217 1.7 6.1 0.00 0.56 0.17 59 1000.6
20260504214521 52 219 4.3 16.5 0.00 0.68 0.17 58 1000.6
20260504213035 52 289 2.6 20.0 0.00 0.68 0.17 58 1000.3
20260504211519 52 132 3.5 10.4 0.00 0.68 0.17 62 1000.1
20260504210017 52 211 5.2 20.0 0.00 0.68 0.17 63 1000.3
20260504204515 52 3 1.7 13.9 0.00 0.69 0.17 65 999.8
20260504203013 53 205 7.0 15.6 0.00 0.69 0.17 65 999.7
20260504201509 53 184 6.1 10.4 0.00 0.69 0.17 66 999.3
20260504200008 52 158 3.5 10.4 0.00 0.73 0.17 70 999.0
20260504194505 52 220 2.6 11.3 0.00 0.73 0.17 73 998.6
20260504193059 51 182 2.6 19.1 0.00 0.73 0.17 75 998.4
20260504191615 50 157 4.3 9.6 0.00 0.73 0.17 78 998.2
20260504190055 49 176 5.2 11.3 0.00 0.73 0.17 81 997.9
20260504184556 48 126 3.5 9.6 0.00 0.75 0.17 83 997.9
20260504183047 48 136 2.6 16.5 0.00 0.75 0.17 84 997.8
20260504181544 47 76 2.6 7.0 0.00 0.75 0.17 84 997.4
20260504180043 47 194 4.3 9.6 0.00 0.75 0.17 85 997.2
20260504174539 46 134 4.3 9.6 0.00 0.75 0.17 85 996.9
20260504173038 46 129 2.6 11.3 0.00 0.75 0.17 85 996.7
20260504171538 45 235 6.1 13.0 0.00 0.75 0.17 86 996.4
20260504081518 38 105 2.6 9.6 0.03 0.71 0.10 94 976.3